Location: Gälforsberget
(66.6500°N, 22.4167°E)
Time: 10:40:56
(UTC+00:00)

ARIANE 6 FM1 Upper Stage - Pass Details

Date: 11 April 2026
Orbit: 526 x 602 km, 62.0° (Epoch: 10 May)

Event Time Altitude Azimuth Distance (km) Brightness Sun altitude
Rises 23:16:34 0° 274° (W) 2,692 6.1 -14.3°
Reaches altitude 10° 23:18:54 10° 266° (W) 1,792 5.1 -14.2°
Maximum altitude 23:22:34 35° 200° (SSW) 876 3.1 -14.2°
Drops below altitude 10° 23:26:12 10° 134° (SE) 1,774 4.9 -14.1°
Sets 23:28:30 0° 126° (SE) 2,662 5.9 -14.0°
